TimeMST,TemperatureF,Dew PointF,Humidity,Sea Level PressureIn,VisibilityMPH,Wind Direction,Wind SpeedMPH,Gust SpeedMPH,PrecipitationIn,Events,Conditions,WindDirDegrees,DateUTC
12:03 AM,26.6,26.6,100,30.20,2.0,NW,9.2,-,0.00,Snow,Light Snow,320,2012-11-26 07:03:00
12:22 AM,26.6,26.6,100,30.21,2.5,NW,9.2,-,0.01,Snow,Light Snow,320,2012-11-26 07:22:00
12:30 AM,26.6,24.8,93,30.21,3.0,NW,9.2,-,0.01,Snow,Light Snow,310,2012-11-26 07:30:00
12:53 AM,26.1,25.0,96,30.33,3.0,WNW,9.2,-,0.01,Snow,Light Snow,300,2012-11-26 07:53:00
1:02 AM,26.6,24.8,93,30.22,2.0,WNW,9.2,-,0.00,Snow,Light Snow,300,2012-11-26 08:02:00
1:26 AM,26.6,24.8,93,30.22,3.0,WNW,9.2,-,0.00,Snow,Light Snow,300,2012-11-26 08:26:00
1:34 AM,26.6,24.8,93,30.22,2.5,WNW,8.1,-,0.00,Snow,Light Snow,300,2012-11-26 08:34:00
1:53 AM,26.1,25.0,96,30.35,2.5,NW,8.1,-,0.00,Snow,Light Snow,310,2012-11-26 08:53:00
2:26 AM,24.8,24.8,100,30.25,4.0,NW,4.6,-,0.01,Snow,Light Snow,310,2012-11-26 09:26:00
2:34 AM,24.8,23.0,93,30.25,6.0,WNW,5.8,-,0.01,Snow,Light Snow,290,2012-11-26 09:34:00
2:43 AM,24.8,21.2,86,30.25,9.0,West,3.5,-,0.01,Snow,Light Snow,280,2012-11-26 09:43:00
2:53 AM,23.0,21.9,96,30.38,10.0,West,3.5,-,0.01,,Overcast,260,2012-11-26 09:53:00
3:18 AM,23.0,21.2,93,30.25,10.0,SSW,3.5,-,N/A,,Overcast,210,2012-11-26 10:18:00
3:53 AM,16.0,15.1,96,30.40,10.0,Calm,Calm,-,N/A,,Partly Cloudy,0,2012-11-26 10:53:00
4:38 AM,19.4,17.6,93,30.27,10.0,WSW,6.9,-,N/A,,Mostly Cloudy,250,2012-11-26 11:38:00
4:53 AM,21.9,21.0,96,30.40,10.0,West,8.1,-,N/A,,Overcast,260,2012-11-26 11:53:00
5:13 AM,17.6,15.8,93,30.26,10.0,WSW,8.1,-,N/A,,Scattered Clouds,240,2012-11-26 12:13:00
5:53 AM,14.0,12.9,95,30.43,10.0,SSE,3.5,-,N/A,,Clear,160,2012-11-26 12:53:00
6:16 AM,15.8,12.2,86,30.28,2.0,Calm,Calm,-,N/A,,Clear,0,2012-11-26 13:16:00
6:33 AM,10.4,10.4,100,30.28,1.2,West,4.6,-,N/A,,Clear,270,2012-11-26 13:33:00
6:43 AM,10.4,10.4,100,30.28,1.0,Calm,Calm,-,N/A,,Mist,0,2012-11-26 13:43:00
6:46 AM,10.4,8.6,92,30.28,0.5,NW,3.5,-,N/A,Fog,Light Freezing Fog,320,2012-11-26 13:46:00
6:53 AM,10.9,10.0,96,30.45,0.2,Calm,Calm,-,N/A,Fog,Light Freezing Fog,0,2012-11-26 13:53:00
7:53 AM,7.0,6.1,96,30.46,0.2,Calm,Calm,-,N/A,Fog,Light Freezing Fog,0,2012-11-26 14:53:00
8:04 AM,10.4,8.6,92,30.29,0.8,South,3.5,-,N/A,,Mist,180,2012-11-26 15:04:00
8:13 AM,6.8,6.8,100,30.28,0.5,SSW,3.5,-,N/A,Fog,Light Freezing Fog,200,2012-11-26 15:13:00
8:17 AM,8.6,6.8,92,30.28,0.8,SSW,3.5,-,N/A,,Clear,200,2012-11-26 15:17:00
8:22 AM,8.6,8.6,100,30.28,2.5,SW,3.5,-,N/A,,Clear,220,2012-11-26 15:22:00
8:27 AM,10.4,8.6,92,30.28,0.8,SSW,3.5,-,N/A,,Clear,200,2012-11-26 15:27:00
8:36 AM,14.0,12.2,93,30.27,2.0,Calm,Calm,-,N/A,,Clear,0,2012-11-26 15:36:00
8:43 AM,12.2,10.4,92,30.27,1.0,Calm,Calm,-,N/A,,Clear,0,2012-11-26 15:43:00
8:53 AM,15.1,14.0,95,30.44,3.0,Calm,Calm,-,N/A,,Clear,0,2012-11-26 15:53:00
9:53 AM,18.0,15.1,88,30.43,10.0,Calm,Calm,-,N/A,,Clear,0,2012-11-26 16:53:00
10:53 AM,19.9,17.1,89,30.41,10.0,Calm,Calm,-,N/A,,Clear,0,2012-11-26 17:53:00
11:53 AM,21.0,17.1,85,30.38,10.0,Calm,Calm,-,N/A,,Clear,0,2012-11-26 18:53:00
12:53 PM,25.0,19.0,78,30.34,10.0,Calm,Calm,-,N/A,,Clear,0,2012-11-26 19:53:00
1:53 PM,25.0,21.0,85,30.30,10.0,SSE,6.9,-,N/A,,Clear,150,2012-11-26 20:53:00
2:53 PM,23.0,19.0,85,30.30,10.0,SSE,3.5,-,N/A,,Clear,150,2012-11-26 21:53:00
3:53 PM,18.0,16.0,92,30.34,10.0,Calm,Calm,-,N/A,,Clear,0,2012-11-26 22:53:00
4:53 PM,18.0,16.0,92,30.31,10.0,Calm,Calm,-,N/A,,Clear,0,2012-11-26 23:53:00
5:53 PM,10.0,9.0,95,30.35,10.0,West,3.5,-,N/A,,Clear,270,2012-11-27 00:53:00
6:53 PM,10.9,10.0,96,30.35,10.0,Calm,Calm,-,N/A,,Clear,0,2012-11-27 01:53:00
7:53 PM,6.1,5.0,95,30.37,7.0,Calm,Calm,-,N/A,,Clear,0,2012-11-27 02:53:00
8:10 PM,5.0,3.2,92,30.13,1.2,Calm,Calm,-,N/A,,Clear,0,2012-11-27 03:10:00
8:12 PM,5.0,3.2,92,30.13,0.8,North,3.5,-,N/A,,Mist,360,2012-11-27 03:12:00
8:15 PM,5.0,3.2,92,30.12,0.2,North,3.5,-,N/A,Fog,Light Freezing Fog,360,2012-11-27 03:15:00
8:33 PM,5.0,1.4,85,30.12,0.8,Calm,Calm,-,N/A,,Mist,0,2012-11-27 03:33:00
8:38 PM,3.2,1.4,92,30.12,2.0,Calm,Calm,-,N/A,,Overcast,0,2012-11-27 03:38:00
8:46 PM,6.8,3.2,85,30.12,1.2,Calm,Calm,-,N/A,,Overcast,0,2012-11-27 03:46:00
8:53 PM,6.1,3.9,91,30.34,0.8,Calm,Calm,-,N/A,,Mist,0,2012-11-27 03:53:00
8:58 PM,6.8,3.2,85,30.12,0.2,Calm,Calm,-,N/A,Fog,Light Freezing Fog,0,2012-11-27 03:58:00
9:29 PM,3.2,1.4,92,30.11,0.5,Calm,Calm,-,N/A,Fog,Light Freezing Fog,0,2012-11-27 04:29:00
9:37 PM,3.2,1.4,92,30.11,0.8,Calm,Calm,-,N/A,,Clear,0,2012-11-27 04:37:00
9:53 PM,3.9,1.9,91,30.33,0.5,Calm,Calm,-,N/A,Fog,Light Freezing Fog,0,2012-11-27 04:53:00
10:09 PM,3.2,-0.4,85,30.10,1.0,SSW,3.5,-,N/A,,Clear,200,2012-11-27 05:09:00
10:12 PM,3.2,1.4,92,30.11,3.0,SSW,3.5,-,N/A,,Clear,200,2012-11-27 05:12:00
10:20 PM,5.0,3.2,92,30.11,10.0,Calm,Calm,-,N/A,,Scattered Clouds,0,2012-11-27 05:20:00
10:26 PM,6.8,3.2,85,30.10,1.8,Calm,Calm,-,N/A,,Mostly Cloudy,0,2012-11-27 05:26:00
10:37 PM,5.0,1.4,85,30.10,2.5,Calm,Calm,-,N/A,,Scattered Clouds,0,2012-11-27 05:37:00
10:44 PM,5.0,3.2,92,30.10,8.0,Calm,Calm,-,N/A,,Mostly Cloudy,0,2012-11-27 05:44:00
10:53 PM,3.9,3.0,96,30.31,5.0,Calm,Calm,-,N/A,,Scattered Clouds,0,2012-11-27 05:53:00
10:56 PM,3.2,1.4,92,30.10,1.5,Calm,Calm,-,N/A,,Scattered Clouds,0,2012-11-27 05:56:00
11:00 PM,3.2,1.4,92,30.10,0.5,Calm,Calm,-,N/A,Fog,Light Freezing Fog,0,2012-11-27 06:00:00
11:08 PM,3.2,3.2,100,30.09,0.2,Calm,Calm,-,N/A,Fog,Light Freezing Fog,0,2012-11-27 06:08:00
11:45 PM,5.0,3.2,92,30.09,0.5,Calm,Calm,-,N/A,Fog,Light Freezing Fog,0,2012-11-27 06:45:00
11:53 PM,3.9,1.0,88,30.29,0.5,Calm,Calm,-,N/A,Fog,Light Freezing Fog,0,2012-11-27 06:53:00